Weather History for Jordan, MT

Change the Weather History Date:

Saturday, November 10, 2012

  Actual Average Record
Temperature  
Mean Temperature 14 °F 33 °F  
Max Temperature 21 °F 47 °F 71 °F (1956)
Min Temperature 6 °F 19 °F -16 °F (1911)
Degree Days  
Heating Degree Days 51 32  
Month to date heating degree days 266 300  
Since 1 July heating degree days 1083 1273  
Cooling Degree Days 0 0  
Month to date cooling degree days 0 0  
Year to date cooling degree days 728 421  
Moisture  
Dew Point 10 °F    
Average Humidity 84    
Maximum Humidity 91    
Minimum Humidity 76    
Precipitation  
Precipitation 0.04 in 0.01 in 0.30 in (1966)
Month to date precipitation 0.74 0.18  
Year to date precipitation 7.69 12.20  
Snow  
Snow 0.00 in - - ()
Month to date snowfall 0.0  
Since 1 July snowfall 0.0  
Since 1 September snowfall 0.0  
Snow Depth 0.00 in    
Sea Level Pressure  
Sea Level Pressure 30.07 in    
Wind  
Wind Speed 13 mph (NW)    
Max Wind Speed 24 mph    
Max Gust Speed 28 mph    
T = Trace of Precipitation, MM = Missing Value Source: NWS Daily Summary

Daily Weather History Graph

Daily Weather History Graph

Search for Another Location

Airport:

Trip Planner

Search our weather history database for the weather conditions in past years. The results will help you decide how hot, cold, wet, or windy it might be!

Date:

Astronomy

Nov. 10, 2012 Rise Set
Actual Time 7:05 AM MST 4:37 PM MST
Civil Twilight 6:32 AM MST 5:10 PM MST
Nautical Twilight 5:55 AM MST 5:47 PM MST
Astronomical Twilight 5:19 AM MST 6:23 PM MST
Moon 3:00 AM MST (11/10) 2:37 PM MST (11/10)
Length of Visible Light 10h 37m
Length of Day
9h 31m
Waning Crescent, 14% of the Moon is Illuminated
Nov 10
Waning Crescent
Nov 13
New
Nov 20
First Quarter
Nov 28
Full
Dec 6
Last Quarter

Hourly Weather History & Observations

Time (MST) Temp. Windchill Dew Point Humidity Pressure Visibility Wind Dir Wind Speed Gust Speed Precip Events Conditions
12:48 AM 19.9 °F 7.9 °F 17.1 °F 89% 29.95 in - NNE 11.5 mph - 0.02 in   Unknown
1:48 AM 19.9 °F 9.3 °F 17.1 °F 89% 29.96 in - NNE 9.2 mph - 0.01 in   Unknown
2:48 AM 19.9 °F 8.6 °F 17.1 °F 89% 29.97 in - North 10.4 mph - 0.01 in   Unknown
3:48 AM 19.0 °F 6.8 °F 15.1 °F 85% 29.96 in - NNW 11.5 mph - N/A   Unknown
4:48 AM 18.0 °F 6.1 °F 14.0 °F 84% 29.99 in - NNW 10.4 mph - N/A   Unknown
5:48 AM 17.1 °F 5.8 °F 12.9 °F 84% 30.01 in - NW 9.2 mph - N/A   Unknown
6:48 AM 17.1 °F 5.0 °F 12.9 °F 84% 30.02 in - NNW 10.4 mph - N/A   Unknown
7:48 AM 17.1 °F 5.8 °F 12.9 °F 84% 30.03 in - NW 9.2 mph - N/A   Unknown
8:48 AM 17.1 °F 3.6 °F 12.0 °F 81% 30.03 in - NW 12.7 mph - N/A   Unknown
9:48 AM 17.1 °F 5.0 °F 12.0 °F 81% 30.04 in - NW 10.4 mph - N/A   Unknown
10:48 AM 16.0 °F 0.1 °F 10.9 °F 81% 30.06 in - NW 17.3 mph - N/A   Unknown
11:48 AM 15.1 °F -1.6 °F 10.0 °F 80% 30.07 in - WNW 18.4 mph - 0.01 in   Unknown
12:48 PM 15.1 °F -0.6 °F 10.0 °F 80% 30.07 in - WNW 16.1 mph - N/A   Unknown
1:48 PM 14.0 °F -3.0 °F 9.0 °F 80% 30.06 in - NW 18.4 mph - N/A   Unknown
2:48 PM 12.9 °F -3.4 °F 8.1 °F 81% 30.09 in - NW 16.1 mph - N/A   Unknown
3:48 PM 12.9 °F -2.8 °F 7.0 °F 77% 30.12 in - NW 15.0 mph - N/A   Unknown
4:48 PM 12.0 °F -4.5 °F 6.1 °F 77% 30.14 in - NW 16.1 mph - N/A   Unknown
5:48 PM 10.9 °F -4.7 °F 5.0 °F 77% 30.15 in - NW 13.8 mph - N/A   Unknown
6:48 PM 9.0 °F -4.2 °F 3.9 °F 80% 30.15 in - WNW 9.2 mph - N/A   Unknown
7:48 PM 8.1 °F -5.3 °F 3.0 °F 80% 30.15 in - WNW 9.2 mph - N/A   Unknown
8:48 PM 6.1 °F -5.6 °F 1.9 °F 83% 30.17 in - NW 6.9 mph - N/A   Unknown
9:48 PM 9.0 °F -5.1 °F 3.9 °F 80% 30.16 in - West 10.4 mph - N/A   Unknown
10:48 PM 8.1 °F -8.4 °F 3.9 °F 83% 30.15 in - West 13.8 mph - N/A   Unknown
11:48 PM 9.0 °F -9.0 °F 3.9 °F 80% 30.14 in - West 17.3 mph - N/A   Unknown